Hurlburt Field, FL

10:44 PM CDT on June 27, 2017 (GMT -0500)
Hurlburt

Weather History for KHRT - October, 2011

Change the Weather History Date:

Friday, October 28, 2011

  Actual Average Record
Temperature  
Mean Temperature 66 °F -  
Max Temperature 80 °F 74 °F 82 °F (1996)
Min Temperature 53 °F 55 °F -19 °F (2007)
Cooling Degree Days 2    
Growing Degree Days 16 (Base 50)    
Moisture  
Dew Point 59 °F    
Average Humidity 73    
Maximum Humidity 100    
Minimum Humidity 45    
Precipitation  
Precipitation 0.00 in - - ()
Sea Level Pressure  
Sea Level Pressure 29.93 in    
Wind  
Wind Speed 6 mph (NNW)    
Max Wind Speed 22 mph    
Max Gust Speed 28 mph    
Visibility 10 miles    
Events Rain    
Averages and records for this station are not official NWS values.
T = Trace of Precipitation, MM = Missing Value Source: NWS Daily Summary

Daily Weather History Graph

Daily Weather History Graph

Search for Another Location

Airport or City:

Trip Planner

Search our weather history database for the weather conditions in past years. The results will help you decide how hot, cold, wet, or windy it might be!

Date:

Astronomy

Oct. 28, 2011 Rise Set
Actual Time 6:57 AM CDT 6:02 PM CDT
Civil Twilight 6:33 AM CDT 6:27 PM CDT
Nautical Twilight 6:05 AM CDT 6:55 PM CDT
Astronomical Twilight 5:36 AM CDT 7:23 PM CDT
Moon 9:01 AM CDT 7:37 PM CDT
Length of Visible Light 11h 54m
Length of Day
11h 04m
Waxing Crescent, 5% of the Moon is Illuminated
Oct 28
Waxing Crescent
Nov 2
First Quarter
Nov 10
Full
Nov 18
Last Quarter
Nov 25
New

Hourly Weather History & Observations

Time (CDT) Temp. Heat Index Dew Point Humidity Pressure Visibility Wind Dir Wind Speed Gust Speed Precip Events Conditions
12:55 AM 58.8 °F - 58.6 °F 99% 29.92 in 10.0 mi Calm Calm - N/A   Mostly Cloudy
1:55 AM 55.2 °F - 54.9 °F 99% 29.91 in 10.0 mi North 5.8 mph - N/A   Clear
2:55 AM 55.4 °F - 55.2 °F 99% 29.91 in 10.0 mi North 3.5 mph - N/A   Clear
3:55 AM 54.3 °F - 54.1 °F 99% 29.91 in 10.0 mi North 5.8 mph - N/A   Clear
4:55 AM 53.1 °F - 52.7 °F 99% 29.92 in 10.0 mi North 4.6 mph - N/A   Clear
5:55 AM 53.2 °F - 53.1 °F 99% 29.93 in 10.0 mi North 6.9 mph - N/A   Clear
6:55 AM 54.1 °F - 53.8 °F 99% 29.94 in 10.0 mi North 5.8 mph - N/A   Clear
7:55 AM 58.1 °F - 58.1 °F 100% 29.96 in 10.0 mi North 3.5 mph - N/A   Partly Cloudy
8:55 AM 64.9 °F - 64.2 °F 98% 29.97 in 10.0 mi NNE 4.6 mph - N/A   Mostly Cloudy
9:55 AM 70.2 °F - 62.4 °F 76% 29.98 in 10.0 mi NE 4.6 mph - N/A   Partly Cloudy
10:51 AM 75.2 °F - 62.6 °F 65% 29.96 in 10.0 mi North 6.9 mph - N/A   Light Drizzle
10:55 AM 76.3 °F - 62.6 °F 62% 29.96 in 10.0 mi NNE 5.8 mph - 0.00 in   Light Drizzle
10:56 AM 77.0 °F - 62.6 °F 61% 29.96 in 10.0 mi NE 5.8 mph - N/A   Clear
11:07 AM 77.0 °F - 60.8 °F 57% 29.96 in 10.0 mi North 5.8 mph - N/A Rain Light Rain
11:27 AM 78.8 °F - 59.0 °F 51% 29.95 in 10.0 mi Variable 4.6 mph - N/A   Clear
11:55 AM 79.9 °F - 57.9 °F 47% 29.94 in 10.0 mi NW 4.6 mph - 0.00 in   Clear
11:58 AM 80.6 °F 80.8 °F 57.2 °F 45% 29.94 in 10.0 mi Variable 3.5 mph - N/A Rain Light Rain
12:00 PM 80.6 °F 80.8 °F 57.2 °F 45% 29.94 in 10.0 mi North 5.8 mph - N/A   Clear
12:02 PM 80.6 °F 80.8 °F 57.2 °F 45% 29.94 in 10.0 mi NNW 5.8 mph - N/A Rain Light Rain
12:08 PM 78.8 °F - 57.2 °F 47% 29.94 in 10.0 mi Calm Calm - N/A   Clear
12:55 PM 77.5 °F - 64.9 °F 65% 29.92 in 10.0 mi South 11.5 mph - 0.00 in   Clear
1:55 PM 77.2 °F - 63.5 °F 63% 29.89 in 10.0 mi South 10.4 mph - N/A   Clear
2:55 PM 77.0 °F - 64.0 °F 64% 29.88 in 10.0 mi South 9.2 mph - N/A   Clear
3:55 PM 75.9 °F - 63.5 °F 65% 29.88 in 10.0 mi South 12.7 mph - N/A   Scattered Clouds
4:55 PM 75.7 °F - 62.1 °F 62% 29.88 in 10.0 mi SSW 6.9 mph - N/A   Scattered Clouds
5:00 PM 75.2 °F - 60.8 °F 61% 29.89 in 10.0 mi SSW 5.8 mph - N/A Rain Light Rain
5:09 PM 75.2 °F - 60.8 °F 61% 29.88 in 10.0 mi SSW 5.8 mph - N/A   Partly Cloudy
5:55 PM 73.9 °F - 61.3 °F 65% 29.89 in 10.0 mi WSW 3.5 mph - 0.00 in   Partly Cloudy
6:55 PM 72.9 °F - 62.4 °F 70% 29.91 in 10.0 mi West 4.6 mph - N/A   Mostly Cloudy
7:55 PM 70.5 °F - 62.2 °F 75% 29.93 in 10.0 mi NW 8.1 mph - N/A   Clear
8:55 PM 67.6 °F - 61.7 °F 81% 29.93 in 10.0 mi NNW 13.8 mph - N/A   Clear
9:55 PM 63.1 °F - 57.7 °F 83% 29.95 in 10.0 mi NNW 17.3 mph - N/A   Clear
10:55 PM 60.4 °F - 54.7 °F 81% 29.96 in 10.0 mi NNW 17.3 mph 25.3 mph N/A   Clear
11:21 PM 59.0 °F - 53.6 °F 82% 29.97 in 10.0 mi North 18.4 mph - N/A   Mostly Cloudy
11:47 PM 59.0 °F - 53.6 °F 82% 29.97 in 10.0 mi North 21.9 mph 27.6 mph N/A   Scattered Clouds
11:55 PM 58.1 °F - 52.7 °F 82% 29.97 in 10.0 mi North 19.6 mph 27.6 mph N/A   Scattered Clouds